Wind_Speed
3 3 4 6 9 11 12 12 11 10 10 8 8 7 7 8 9 5 1 2 5 2 5 9 7 7 6 1 2 1 4 2 4 7 6 16 5 4 6 9 6 6 18 16 20
10 9 9 10 12 12 13 12 11 11 10 9 8 7 6 8 4 3 3 4 5 4 6 4 4 4 1 2 2 3 3 3 2 4 6 12 13 10 6 10 6 14 18 19 21
11 11 11 12 12 12 12 12 12 11 10 9 7 5 5 4 1 3 3 5 5 7 5 7 6 4 3 3 4 4 4 2 2 4 12 17 14 14 12 5 13 19 20 21 21
12 12 11 12 11 11 11 12 12 11 10 8 6 4 4 2 1 1 5 5 5 6 8 5 5 2 2 4 9 1 4 2 2 2 4 10 14 11 12 6 16 18 21 23 24
12 11 10 10 10 9 9 10 10 10 8 6 4 3 4 2 5 5 6 5 5 7 8 5 8 6 3 6 6 4 5 4 6 3 4 10 10 9 10 8 17 23 22 22 22
10 10 9 9 8 8 8 8 8 8 6 4 2 1 1 2 3 7 3 7 7 8 4 11 4 5 6 2 6 3 9 8 6 6 6 5 7 11 15 18 22 24 24 24 25
7 7 7 7 6 5 5 6 7 7 5 2 1 3 5 7 4 7 4 5 6 11 7 8 9 5 3 0 5 3 3 2 8 10 5 3 5 10 14 23 24 24 24 26 28
4 5 4 4 4 3 3 4 6 6 4 1 2 4 6 6 9 8 5 2 2 5 8 8 10 5 3 3 1 3 3 2 5 14 7 11 9 12 24 28 28 28 27 30 31
2 2 2 2 1 0 2 3 4 5 4 3 1 3 7 5 5 6 7 5 2 2 4 3 5 4 2 4 2 2 4 7 4 17 5 6 8 8 18 34 32 31 30 33 33
4 4 4 4 4 4 2 2 3 4 5 8 8 5 8 5 6 7 7 10 7 4 3 5 4 1 1 3 6 7 5 5 6 9 8 8 14 3 21 32 33 35 35 35 38
5 5 5 5 6 6 3 4 5 3 10 9 4 4 3 8 8 8 8 10 7 9 5 9 3 8 11 9 7 3 4 6 6 6 9 14 15 14 23 24 27 35 38 41 43
5 4 4 5 6 7 4 8 6 8 11 16 23 19 11 7 4 9 12 9 7 6 6 2 8 11 10 10 12 12 9 7 7 3 9 8 18 15 14 26 36 39 39 44 42
11 9 8 6 6 5 3 7 9 11 6 10 13 20 17 12 6 12 20 10 6 6 8 8 8 11 11 9 8 12 8 4 6 2 4 5 8 9 14 23 31 38 45 45 47
13 11 8 5 3 4 2 7 9 10 3 4 3 4 13 6 7 16 25 9 6 10 8 9 18 13 6 7 7 8 4 5 7 3 5 5 11 6 10 12 12 33 36 45 44
11 11 10 6 1 2 5 9 8 5 4 3 4 6 6 10 1 4 20 15 6 5 4 9 5 7 8 10 7 7 4 3 3 3 2 3 3 5 7 8 13 19 38 40 45
7 8 8 5 3 5 7 6 7 5 5 3 4 3 4 9 4 3 5 6 4 5 11 8 9 5 8 2 3 7 4 3 4 3 5 7 7 20 8 15 8 7 29 39 41
8 6 5 4 3 6 4 3 4 3 3 2 4 5 6 5 5 6 4 4 6 2 6 4 11 4 6 4 2 3 7 2 3 1 10 11 9 23 7 9 9 8 20 34 39
11 9 5 4 4 2 1 4 1 5 5 6 10 4 6 5 8 10 5 5 8 4 3 5 7 14 9 16 10 11 11 7 8 6 10 6 8 9 15 29 18 20 20 28 35
9 6 5 2 3 4 2 3 7 4 2 8 8 5 4 5 5 7 10 8 8 17 9 5 8 6 8 8 17 7 11 12 3 3 2 6 8 9 5 4 8 17 21 30 33
9 5 2 1 4 3 3 5 4 6 9 6 5 6 6 8 5 6 3 5 10 16 26 7 16 12 7 5 6 8 7 3 3 6 7 8 7 8 11 19 11 8 22 33 33
6 5 6 1 5 3 3 6 5 15 20 5 5 10 6 5 9 8 7 8 4 8 12 16 7 15 2 6 16 5 9 5 5 6 7 9 7 10 17 11 14 18 28 34 35
5 3 6 4 1 3 3 3 13 14 18 11 14 12 13 12 19 18 21 9 22 10 12 8 11 19 28 9 11 16 12 23 8 5 7 15 17 4 9 10 14 21 32 33 33
6 5 4 4 0 3 9 9 20 8 8 7 5 7 9 8 10 6 10 19 23 18 15 8 6 11 14 3 2 7 13 7 19 1 17 17 17 11 16 14 19 23 34 34 33
6 4 5 2 7 4 6 7 5 21 15 19 13 14 10 13 13 10 14 8 25 20 20 12 6 15 17 17 6 7 12 19 15 12 25 22 28 10 6 7 8 20 32 34 36
8 4 6 4 6 13 7 5 11 9 9 18 7 12 14 9 15 13 16 19 12 18 7 5 7 11 21 23 19 21 20 26 26 30 21 29 26 25 18 13 16 26 30 35 37
5 7 7 12 11 8 7 4 12 8 12 6 14 17 14 11 13 15 12 9 8 3 6 2 6 16 24 23 25 26 28 25 27 30 31 32 32 7 17 24 16 28 31 35 38
7 5 6 5 4 5 4 4 15 21 5 24 17 15 14 17 19 23 24 22 17 13 15 6 4 4 11 20 18 20 18 25 25 23 22 23 34 12 20 18 24 23 25 32 37
Wind_Direction
93 112 135 132 128 133 135 129 131 131 127 124 119 118 121 133 133 129 126 196 309 330 98 77 74 104 103 84 135 344 58 290 314 162 168 155 131 131 110 131 92 113 159 165 163
83 92 102 112 118 123 124 125 127 128 127 126 118 119 127 148 170 246 219 280 272 182 138 92 81 84 132 196 187 123 114 242 356 322 155 153 149 147 135 129 103 121 137 156 163
80 90 99 106 111 117 120 124 127 128 125 124 117 122 135 150 223 206 250 275 229 180 140 146 131 188 235 197 212 194 177 253 31 28 160 161 167 178 153 209 188 175 162 158 160
86 90 96 99 106 115 123 129 131 130 127 126 120 128 150 156 187 177 315 228 200 172 141 106 155 242 205 196 230 164 197 130 159 258 148 172 160 174 180 220 211 202 178 168 174
91 93 94 100 107 115 124 135 137 134 130 126 116 132 158 233 248 253 318 202 176 167 144 189 229 223 241 211 183 198 211 179 147 222 258 185 171 180 181 143 180 178 181 180 183
95 97 100 99 104 119 135 146 148 146 138 128 105 131 236 266 264 280 271 182 192 171 169 201 223 261 252 252 161 316 169 165 169 210 238 209 203 182 194 174 162 174 183 184 189
97 99 100 102 108 123 145 162 168 167 154 139 18 315 244 255 257 294 221 205 225 178 193 227 247 247 327 295 219 178 142 195 201 197 221 138 270 226 207 202 197 194 196 193 198
96 101 106 107 110 124 166 185 187 186 176 196 333 316 264 262 265 269 223 189 232 180 212 224 223 253 260 145 158 167 127 203 246 180 214 152 259 242 217 198 205 213 210 204 207
42 85 94 73 50 30 236 216 214 212 206 243 249 302 273 248 261 220 188 186 223 215 245 177 196 226 167 112 26 268 225 219 307 187 146 162 256 258 236 201 209 212 213 211 213
13 4 356 348 337 332 298 227 234 236 239 262 236 280 233 259 213 227 199 184 179 171 221 195 222 146 46 111 208 206 225 235 207 216 178 201 247 226 190 192 209 216 218 216 218
17 2 352 348 347 353 359 343 333 279 240 221 193 220 202 213 246 229 199 174 198 200 192 201 147 211 210 209 222 225 211 235 264 237 167 217 227 227 207 203 216 221 221 221 224
14 5 358 356 353 354 40 21 2 328 299 267 247 248 250 216 220 200 187 187 190 210 233 298 232 229 222 223 227 246 257 266 296 198 178 236 241 242 206 217 219 219 220 223 225
9 356 344 346 0 30 349 339 325 318 274 294 247 230 224 229 238 223 192 202 212 213 217 191 230 230 218 252 205 233 219 237 236 317 262 277 281 241 250 233 231 228 230 227 225
13 3 355 343 51 23 14 347 315 324 3 263 212 232 197 201 253 220 207 190 226 211 223 234 236 235 200 230 204 236 193 237 244 135 241 155 283 275 284 269 222 227 217 224 222
5 11 2 353 313 349 326 322 331 332 353 158 137 162 189 180 263 176 202 213 227 242 160 236 168 179 198 213 193 234 155 164 206 209 333 207 304 254 253 274 266 224 220 218 223
339 353 6 356 299 313 332 321 321 37 262 191 138 186 119 242 286 168 190 219 268 248 264 232 275 187 198 128 194 154 101 45 32 84 273 173 187 274 222 238 254 243 214 224 221
298 306 324 316 309 346 336 341 31 144 294 208 233 176 196 210 226 193 183 199 207 179 245 262 240 216 178 140 23 160 102 288 285 181 239 183 206 249 262 248 217 197 221 220 219
309 292 275 265 273 297 240 58 89 267 303 46 346 204 190 211 240 197 196 237 239 286 322 204 285 176 196 201 187 198 166 172 203 210 259 196 230 248 222 246 230 214 204 208 210
324 298 283 70 307 226 212 117 208 221 51 349 341 280 249 264 244 222 216 211 199 194 200 241 254 214 200 179 175 194 212 209 286 168 292 227 265 299 277 233 213 182 180 189 198
16 24 55 245 238 214 67 242 254 327 318 332 241 239 281 298 341 334 260 234 232 207 206 233 275 254 244 195 233 160 167 100 195 215 227 246 233 228 225 235 216 209 192 189 198
27 27 39 165 201 160 183 233 288 292 294 289 300 281 271 295 295 290 246 303 289 322 246 236 213 256 136 226 190 191 220 219 179 169 195 256 249 207 221 219 201 204 200 194 200
36 46 33 36 74 232 206 255 335 335 331 321 295 276 269 270 274 272 277 261 346 347 314 277 236 246 238 215 204 230 225 207 204 251 245 249 254 254 194 188 181 201 206 209 211
16 331 325 316 78 310 311 315 312 308 358 343 301 349 334 323 313 308 321 351 26 21 1 339 309 275 255 305 309 221 231 225 236 92 234 239 254 217 254 268 218 203 208 209 207
16 6 7 280 293 352 346 285 325 328 327 326 308 313 327 310 298 289 305 313 325 327 345 334 256 270 279 262 200 197 218 222 215 234 245 243 258 248 260 244 205 210 205 205 206
25 38 11 332 338 331 310 298 310 317 314 331 324 355 357 326 308 291 309 305 307 307 10 32 292 315 317 318 321 309 235 219 216 227 232 251 244 245 238 236 231 209 202 208 208
37 4 348 307 316 327 322 311 302 343 352 326 331 324 330 313 314 327 345 332 292 279 309 226 274 299 289 298 317 315 303 294 230 233 239 245 256 181 231 237 238 232 221 209 208
356 308 311 254 293 320 243 329 323 327 318 318 314 316 312 308 311 306 305 280 249 267 281 268 245 262 269 274 281 294 297 285 292 255 241 238 247 186 236 241 246 250 234 222 213
Height
1515 1515 1515 1516 1517 1518 1520 1520 1522 1524 1526 1527 1528 1529 1530 1531 1532 1532 1533 1534 1534 1534 1535 1535 1535 1536 1538 1539 1540 1540 1550 1554 1544 1546 1543 1540 1543 1546 1548 1549 1550 1552 1553 1556 1562
1517 1517 1517 1517 1518 1520 1521 1522 1524 1525 1526 1528 1528 1530 1530 1531 1532 1531 1533 1533 1533 1534 1535 1534 1535 1537 1538 1539 1540 1540 1552 1544 1539 1537 1537 1539 1540 1543 1548 1549 1553 1553 1555 1557 1560
1519 1519 1519 1520 1520 1521 1523 1523 1525 1527 1528 1529 1529 1530 1530 1531 1532 1530 1531 1532 1533 1533 1533 1534 1535 1537 1538 1538 1538 1538 1546 1538 1538 1537 1537 1537 1540 1542 1544 1549 1546 1549 1552 1554 1557
1522 1522 1522 1522 1523 1524 1524 1525 1526 1528 1529 1529 1529 1530 1530 1531 1534 1530 1530 1531 1532 1532 1533 1534 1536 1537 1536 1538 1536 1538 1536 1536 1537 1537 1537 1536 1537 1539 1540 1541 1542 1545 1549 1551 1553
1524 1524 1524 1524 1525 1526 1526 1527 1528 1528 1529 1530 1530 1530 1530 1531 1529 1529 1529 1530 1531 1531 1532 1533 1535 1535 1535 1534 1534 1535 1534 1535 1535 1536 1536 1536 1535 1536 1537 1538 1538 1543 1545 1548 1550
1527 1526 1527 1526 1527 1527 1528 1528 1529 1530 1530 1530 1530 1529 1530 1531 1528 1528 1528 1528 1529 1530 1531 1532 1533 1534 1532 1532 1533 1531 1532 1533 1533 1534 1535 1535 1535 1535 1536 1537 1539 1540 1542 1544 1545
1528 1528 1528 1528 1529 1529 1529 1529 1529 1530 1530 1530 1530 1529 1529 1528 1527 1527 1527 1527 1528 1529 1530 1531 1532 1532 1530 1530 1530 1531 1534 1532 1531 1532 1533 1533 1536 1531 1531 1534 1535 1537 1538 1540 1541
1530 1530 1530 1530 1529 1529 1530 1530 1530 1530 1530 1530 1530 1529 1527 1526 1526 1526 1526 1527 1528 1528 1529 1529 1531 1530 1530 1530 1530 1532 1534 1543 1525 1527 1529 1532 1540 1523 1526 1528 1528 1530 1532 1534 1535
1532 1532 1531 1531 1531 1530 1530 1530 1529 1529 1529 1529 1530 1530 1526 1524 1523 1524 1524 1526 1527 1528 1529 1529 1530 1530 1530 1533 1540 1535 1548 1539 1528 1523 1525 1528 1529 1517 1517 1520 1522 1524 1526 1527 1530
1534 1534 1533 1533 1532 1531 1530 1529 1529 1529 1529 1528 1528 1531 1524 1522 1521 1522 1523 1524 1526 1527 1529 1529 1529 1530 1531 1538 1555 1541 1539 1529 1530 1520 1521 1525 1520 1515 1513 1515 1515 1517 1518 1521 1521
1535 1534 1534 1533 1533 1531 1531 1530 1532 1530 1527 1522 1521 1519 1519 1520 1520 1521 1522 1523 1524 1525 1528 1526 1532 1535 1527 1525 1522 1522 1523 1526 1516 1507 1516 1519 1513 1511 1510 1511 1510 1509 1510 1510 1510
1535 1534 1534 1533 1532 1532 1532 1532 1532 1533 1524 1517 1516 1518 1518 1518 1518 1518 1520 1522 1523 1526 1524 1528 1531 1518 1517 1519 1520 1520 1525 1523 1513 1506 1512 1513 1509 1503 1503 1500 1495 1494 1498 1500 1504
1536 1535 1534 1533 1532 1532 1532 1532 1532 1531 1527 1511 1509 1511 1514 1517 1515 1513 1515 1517 1517 1521 1520 1526 1514 1507 1513 1515 1516 1517 1520 1518 1520 1509 1509 1511 1511 1503 1490 1488 1486 1486 1485 1489 1490
1535 1533 1533 1533 1534 1532 1531 1532 1531 1530 1534 1514 1510 1510 1512 1515 1512 1509 1510 1513 1512 1514 1514 1513 1504 1505 1508 1511 1509 1518 1506 1509 1513 1519 1534 1511 1516 1499 1485 1480 1478 1473 1476 1476 1481
1536 1534 1533 1532 1533 1533 1533 1531 1530 1529 1548 1512 1511 1511 1512 1513 1510 1507 1508 1510 1510 1507 1507 1506 1499 1502 1505 1502 1500 1508 1502 1506 1508 1514 1518 1514 1529 1496 1483 1481 1468 1461 1461 1465 1470
1535 1534 1533 1532 1532 1532 1532 1531 1532 1540 1541 1511 1509 1510 1513 1513 1511 1508 1509 1510 1509 1507 1502 1502 1496 1495 1494 1495 1496 1499 1503 1507 1512 1522 1537 1515 1521 1467 1484 1467 1456 1450 1452 1457 1462
1532 1532 1532 1531 1532 1532 1532 1532 1543 1551 1509 1511 1509 1507 1509 1509 1508 1509 1510 1512 1514 1520 1515 1496 1492 1489 1489 1498 1498 1498 1512 1536 1537 1542 1524 1498 1509 1466 1461 1454 1449 1445 1446 1449 1455
1530 1529 1529 1530 1530 1532 1531 1534 1548 1526 1516 1509 1510 1506 1512 1504 1502 1500 1505 1511 1507 1508 1510 1512 1506 1486 1480 1481 1492 1496 1499 1525 1535 1533 1503 1489 1498 1466 1445 1438 1442 1440 1440 1444 1449
1526 1526 1527 1528 1530 1530 1531 1545 1536 1519 1513 1515 1510 1510 1507 1500 1502 1497 1500 1498 1495 1498 1511 1501 1490 1468 1466 1468 1475 1491 1494 1479 1498 1494 1508 1486 1468 1450 1443 1442 1441 1436 1436 1439 1444
1525 1524 1525 1526 1529 1530 1534 1536 1523 1514 1513 1513 1519 1511 1514 1506 1508 1503 1496 1483 1486 1482 1482 1483 1487 1469 1464 1468 1467 1473 1474 1498 1500 1509 1515 1479 1471 1460 1440 1433 1434 1438 1434 1435 1439
1526 1525 1528 1527 1528 1530 1537 1531 1520 1517 1517 1515 1512 1512 1511 1511 1505 1504 1493 1483 1480 1478 1479 1472 1480 1465 1467 1468 1465 1475 1474 1475 1476 1487 1494 1480 1468 1431 1424 1423 1427 1425 1426 1430 1433
1528 1528 1529 1529 1530 1527 1531 1524 1523 1520 1517 1512 1506 1505 1505 1504 1498 1495 1490 1489 1483 1484 1480 1470 1468 1460 1456 1452 1451 1451 1449 1454 1468 1477 1467 1452 1432 1415 1415 1414 1415 1419 1422 1425 1428
1531 1531 1530 1531 1536 1534 1527 1525 1523 1518 1516 1514 1511 1508 1505 1503 1505 1490 1489 1485 1488 1490 1492 1485 1470 1464 1448 1451 1450 1452 1450 1450 1446 1456 1450 1449 1424 1413 1414 1413 1413 1412 1415 1418 1422
1536 1537 1532 1531 1531 1532 1533 1528 1525 1521 1516 1514 1512 1509 1504 1503 1500 1492 1492 1486 1486 1486 1491 1486 1472 1466 1459 1442 1442 1448 1444 1440 1447 1452 1429 1428 1416 1417 1416 1413 1408 1407 1408 1412 1416
1540 1542 1543 1542 1535 1538 1536 1531 1528 1524 1518 1515 1510 1511 1515 1507 1499 1499 1490 1486 1485 1486 1490 1490 1479 1472 1468 1466 1458 1443 1424 1425 1429 1420 1428 1408 1413 1403 1408 1410 1406 1402 1405 1408 1410
1545 1547 1546 1543 1541 1539 1533 1530 1527 1523 1526 1519 1518 1514 1514 1512 1510 1502 1499 1497 1491 1485 1485 1486 1486 1486 1471 1467 1461 1459 1442 1435 1410 1406 1402 1402 1391 1398 1398 1398 1399 1400 1398 1398 1401
1547 1548 1546 1542 1541 1539 1533 1528 1528 1526 1522 1521 1517 1512 1511 1505 1501 1496 1493 1489 1485 1484 1481 1481 1478 1477 1467 1459 1461 1455 1440 1422 1411 1397 1395 1400 1375 1395 1389 1390 1387 1390 1392 1391 1393